EW7837 Weather Reports


time (UTC)temp
F
wind
direction
speed
knots
gust
knots
rain 1hr
in
rain 24hr
in
rain mn
in
humidity
%
barometer
mb
20260904234537 80 248 0.0 0.0 0.00 0.00 0.00 60 1009.0
20260904233026 80 255 0.0 0.0 0.00 0.00 0.00 61 1009.0
20260904231524 79 210 0.0 0.0 0.00 0.00 0.00 61 1009.0
20260904230023 79 252 0.0 0.0 0.00 0.00 0.00 61 1009.0
20260904224522 79 259 0.0 0.0 0.00 0.00 0.00 62 1009.0
20260904223022 79 255 0.0 0.0 0.00 0.00 0.00 62 1009.2
20260904221558 79 244 0.0 0.0 0.00 0.00 0.00 63 1009.6
20260904220058 79 239 0.0 0.0 0.00 0.00 0.00 63 1010.0
20260904214558 79 247 0.0 0.0 0.00 0.00 0.00 63 1009.9
20260904213105 80 218 0.0 0.0 0.00 0.00 0.00 62 1009.5
20260904211547 80 258 0.0 0.0 0.00 0.00 0.00 63 1009.4
20260904210047 80 250 0.0 0.0 0.00 0.00 0.00 63 1009.9
20260904204534 79 248 0.0 0.0 0.00 0.00 0.00 63 1010.0
20260904203042 78 272 0.0 0.0 0.00 0.00 0.00 64 1010.0
20260904201511 79 257 0.0 0.0 0.00 0.00 0.00 64 1010.0
20260904200014 79 249 0.0 0.0 0.00 0.00 0.00 64 1009.7
20260904194509 79 270 0.0 0.0 0.00 0.00 0.00 63 1010.2
20260904193010 78 254 0.0 0.0 0.00 0.00 0.00 63 1010.4
20260904191505 79 261 0.0 0.0 0.00 0.00 0.00 63 1010.5
20260904190007 79 279 0.0 0.0 0.00 0.00 0.00 63 1010.6
20260904184606 78 269 0.0 0.0 0.00 0.00 0.00 66 1010.5
20260904183056 78 247 0.0 0.0 0.00 0.00 0.00 65 1010.7
20260904181542 78 245 0.0 0.0 0.00 0.00 0.00 64 1010.6
20260904180020 78 247 0.0 0.0 0.00 0.00 0.00 64 1010.6
20260904174515 78 254 0.0 0.0 0.00 0.00 0.00 64 1010.5
20260904173012 78 240 0.0 0.0 0.00 0.00 0.00 65 1010.6
20260904171507 78 229 0.0 0.0 0.00 0.00 0.00 66 1010.6
20260904170004 78 250 0.0 0.0 0.00 0.00 0.00 65 1010.6
20260904164600 76 250 0.0 0.0 0.00 0.00 0.00 68 1010.6
20260904163028 75 250 0.0 0.0 0.00 0.00 0.00 70 1010.3
20260904161521 73 250 0.0 0.0 0.00 0.00 0.00 72 1010.5
20260904160020 72 250 0.0 0.0 0.00 0.00 0.00 73 1010.5
20260904154511 71 250 0.0 0.0 0.00 0.00 0.00 77 1010.4
20260904153008 70 250 0.0 0.0 0.00 0.00 0.00 78 1010.0
20260904151503 69 250 0.0 0.0 0.00 0.00 0.00 83 1010.2
20260904150058 68 250 0.0 0.0 0.00 0.00 0.00 86 1010.1
20260904144554 66 250 0.0 0.0 0.00 0.00 0.00 88 1010.1
20260904143054 64 250 0.0 0.0 0.00 0.00 0.00 88 1010.1
20260904141554 63 250 0.0 0.0 0.00 0.00 0.00 88 1009.6
20260904140027 63 250 0.0 0.0 0.00 0.00 0.00 88 1009.8
20260904134516 64 250 0.0 0.0 0.00 0.00 0.00 88 1009.7
20260904133013 64 250 0.0 0.0 0.00 0.00 0.00 88 1009.6
20260904131513 64 250 0.0 0.0 0.00 0.00 0.00 88 1009.5
20260904130025 64 250 0.0 0.0 0.00 0.00 0.00 88 1009.0
20260904124511 64 250 0.0 0.0 0.00 0.00 0.00 88 1009.4
20260904123003 63 250 0.0 0.0 0.00 0.00 0.00 88 1009.2
20260904121502 63 250 0.0 0.0 0.00 0.00 0.00 88 1009.1
20260904120001 63 250 0.0 0.0 0.00 0.00 0.00 87 1009.4
20260904114503 64 250 0.0 0.0 0.00 0.00 0.00 87 1009.1
20260904113041 64 250 0.0 0.0 0.00 0.00 0.00 86 1009.5
20260904111542 64 250 0.0 0.0 0.00 0.00 0.00 85 1009.5
20260904110040 65 250 0.0 0.0 0.00 0.00 0.00 85 1009.3
20260904104530 66 250 0.0 0.0 0.00 0.00 0.00 85 1009.2
20260904103027 67 250 0.0 0.0 0.00 0.00 0.00 85 1009.0
20260904101527 67 250 0.0 0.0 0.00 0.00 0.00 86 1009.2
20260904100023 67 250 0.0 0.0 0.00 0.00 0.00 86 1009.3
20260904094522 67 250 0.0 0.0 0.00 0.00 0.00 86 1009.2
20260904093023 66 250 0.0 0.0 0.00 0.00 0.00 86 1008.9
20260904091522 66 250 0.0 0.0 0.00 0.00 0.00 87 1009.0
20260904090019 66 250 0.0 0.0 0.00 0.00 0.00 87 1009.4
20260904084519 66 250 0.0 0.0 0.00 0.00 0.00 87 1009.5
20260904083019 65 250 0.0 0.0 0.00 0.00 0.00 87 1009.5
20260904081518 65 250 0.0 0.0 0.00 0.00 0.00 87 1009.3
20260904080016 64 250 0.0 0.0 0.00 0.00 0.00 87 1009.4
20260904074516 64 250 0.0 0.0 0.00 0.00 0.00 87 1009.8
20260904073015 64 250 0.0 0.0 0.00 0.00 0.00 87 1009.8
20260904071514 64 250 0.0 0.0 0.00 0.00 0.00 86 1009.6
20260904070050 64 250 0.0 0.0 0.00 0.00 0.00 86 1009.4
20260904064550 64 250 0.0 0.0 0.00 0.00 0.00 86 1009.5
20260904063055 64 250 0.0 0.0 0.00 0.00 0.00 86 1009.6
20260904061539 65 250 0.0 0.0 0.00 0.00 0.00 86 1009.5
20260904060039 65 250 0.0 0.0 0.00 0.00 0.00 85 1009.5
20260904054533 66 250 0.0 0.0 0.00 0.00 0.00 85 1009.5
20260904053024 66 250 0.0 0.0 0.00 0.00 0.00 85 1009.2
20260904051609 66 250 0.0 0.0 0.00 0.00 0.00 84 1009.6
20260904050050 67 250 0.0 0.0 0.00 0.00 0.00 83 1009.5
20260904044549 67 250 0.0 0.0 0.00 0.00 0.00 83 1009.5
20260904043046 68 250 0.0 0.0 0.00 0.00 0.00 82 1009.5
20260904041544 69 250 0.0 0.0 0.00 0.00 0.00 81 1009.0
20260904040044 70 250 0.0 0.0 0.00 0.00 0.00 81 1009.0
20260904034538 70 250 0.0 0.0 0.00 0.00 0.00 82 1009.3
20260904033036 70 250 0.0 0.0 0.00 0.00 0.00 81 1009.2
20260904031534 70 250 0.0 0.0 0.00 0.00 0.00 81 1009.0
20260904030104 71 250 0.0 0.0 0.00 0.00 0.00 80 1008.7
20260904024534 71 250 0.0 0.0 0.00 0.00 0.00 80 1008.7
20260904023034 71 250 0.0 0.0 0.00 0.00 0.00 79 1009.0
20260904021531 72 250 0.0 0.0 0.00 0.00 0.00 78 1009.0
20260904020025 73 250 0.0 0.0 0.00 0.00 0.00 76 1009.0
20260904014526 74 250 0.0 0.0 0.00 0.00 0.00 73 1009.0
20260904013128 75 250 0.0 0.0 0.00 0.00 0.00 72 1008.8
20260904011531 75 250 0.0 0.0 0.00 0.00 0.00 71 1009.0
20260904010038 75 250 0.0 0.0 0.00 0.00 0.00 71 1009.3
20260904004524 76 257 0.0 0.0 0.00 0.00 0.00 71 1009.4
20260904003122 76 275 0.0 0.0 0.00 0.00 0.00 71 1009.3
20260904001527 76 258 0.0 0.0 0.00 0.00 0.00 71 1009.1
20260904000032 76 231 0.0 0.0 0.00 0.00 0.00 70 1008.9